{"data":{"norad_id":66558,"epoch":"2026-05-25T01:10:58.946304Z","epoch_age_seconds":70763,"freshness":"FRESH","line1":"1 66558U 25268B   26145.04929336  .00016711  00000+0  61512-3 0  9990","line2":"2 66558  43.0048 276.2013 0001029 302.4899  57.5853 15.27595023 29631","mean_motion":15.27595023,"eccentricity":0.0001029,"inclination_deg":43.0048,"raan_deg":276.2013,"arg_perigee_deg":302.4899,"mean_anomaly_deg":57.5853,"bstar":0.00061512,"rev_number":2963,"period_min":94.265821655534,"perigee_km":482.29810072138,"apogee_km":483.71012356226,"semimajor_km":6861.1411121418,"source":"CELESTRAK","updated_at":"2026-05-25T13:38:21.256086Z"}}